星链-35617(STARLINK-35617)

导读

STARLINK-35617是美国SpaceX星链星座计划中的一颗卫星,于2025年11月11日发射升空。作为星链低轨互联网星座的组成部分,该卫星承担着为全球范围内用户提供高速低延迟宽带互联网服务的任务,尤其服务偏远地区、移动载体的网络接入需求,进一步拓展了星链星座的覆盖范围与服务能力。

基本信息
目录编号:
66422
目录名称:
STARLINK-35617
国际标识:
2025-259A
轨道中心:
EARTH
卫星名称:
星链-35617
卫星全名:
星链-35617(STARLINK-35617)
卫星状态:
在轨 (已飞行297 天)
发射日期:
2025-11-11 UTC
国别 :
美国 (US)
星等 :
--
轨道信息
数据来源 国际轨道数据
星历时间: 2026-09-04T02:25:19+0800
13小时前
查看轨道信息
半长轴: 6861.142km
偏心率: 0.000141
轨道倾角: 43.001°
近地点辐角 266.127°
升交点赤经 348.869°
平近点角 93.942°
近地点: 482.037km
远地点: 483.973km
周期: 94.266分钟
每日圈数: 15.275949
详细信息
固有亮度:
5
最大亮度:
2.5
卫星平台:
Starlink V1.0
覆盖范围:
全球
运营商:
太空探索技术公司
运营商所在国:
美国
制造商(研发单位):
太空探索技术公司
制造商所在国:
美国
使用方式:
暂无
卫星简介
Starlink 计划是 SpaceX 推出的全球卫星互联网项目,通过发射低轨道卫星,为全球尤其是偏远地区提供高速、低延迟的互联网服务。自 2019 年起,Starlink 已部署数千颗卫星,旨在缩小全球数字鸿沟,推动互联网普及。该项目还为军事、航空等行业提供通信支持,带来广泛经济效益。
2D轨道图
3D轨道图
轨道高度分析图
轨道倾角分析图
轨道综合分析图
查看轨道综合分析图
交会数据列表
事件ID 空间交会对象 最接近时刻(TCA) 交会距离 交会风险概率(CRP) 交会风险指数(CRI) 操作
CDM_260904-104705-968906-642221
2026-09-04T
10:47:41+0000
0.436 km
远距离
2.203397E-4 高风险 0.82
CDM_260905-053505-941706-642221
2026-09-05T
05:35:48+0000
0.650 km
远距离
7.970582E-5 中风险 0.73
CDM_260904-183905-863406-642221
2026-09-04T
18:39:37+0000
0.792 km
远距离
4.510126E-5 中风险 0.68
CDM_260827-200105-696406-642223
AFR-1 (56964)
2026-08-27T
20:01:37+0000
0.928 km
远距离
2.080723E-5 中风险 0.61
CDM_260905-020106-397006-642221
2026-09-05T
02:01:10+0000
1.226 km
极远距离
8.607173E-6 低风险 0.54
CDM_260905-002706-397006-642221
2026-09-05T
00:27:01+0000
1.373 km
极远距离
5.864543E-6 低风险 0.5
CDM_260905-045005-968906-642221
2026-09-05T
04:50:26+0000
1.491 km
极远距离
5.21666E-6 低风险 0.49
CDM_260905-093405-863406-642221
2026-09-05T
09:34:04+0000
1.535 km
极远距离
4.810418E-6 低风险 0.49
CDM_260904-170505-863406-642222
2026-09-04T
17:05:28+0000
1.601 km
极远距离
4.214353E-6 低风险 0.47
CDM_260905-062405-968906-642221
2026-09-05T
06:24:35+0000
1.640 km
极远距离
3.864454E-6 低风险 0.47